QPF
0.06 0.07 0.06 0.05 0.03 0.02 0.03 0.02 0.01 0.03 0.03 0.04 0.04 0.03 0.02 0.02 0.03 0.02 0.01 0.01 0.01 0.01 0.02 0.04 0.06 0.07 0.08 0.08 0.08 0.07 0.08 0.08 0.07 0.08 0.08 0.08 0.10 0.12 0.11 0.09 0.07 0.06 0.07 0.06
0.07 0.05 0.02 0.02 0.02 0.02 0.03 0.03 0.02 0.03 0.03 0.04 0.04 0.04 0.02 0.02 0.02 0.02 0.01 0.01 0.01 0.01 0.02 0.04 0.06 0.06 0.05 0.05 0.06 0.07 0.09 0.10 0.08 0.08 0.08 0.08 0.08 0.10 0.12 0.10 0.08 0.07 0.07 0.08
0.06 0.03 0.02 0.02 0.02 0.02 0.02 0.02 0.02 0.03 0.04 0.04 0.04 0.04 0.03 0.02 0.02 0.02 0.02 0.01 0.01 0.01 0.01 0.03 0.05 0.05 0.05 0.04 0.05 0.06 0.09 0.12 0.12 0.10 0.09 0.09 0.09 0.09 0.10 0.11 0.08 0.07 0.07 0.08
0.04 0.02 0.03 0.03 0.02 0.01 0.02 0.01 0.01 0.02 0.05 0.06 0.05 0.05 0.03 0.02 0.01 0.01 0.02 0.01 0.01 0.01 0.01 0.02 0.04 0.04 0.04 0.04 0.04 0.04 0.05 0.07 0.11 0.12 0.09 0.08 0.08 0.07 0.07 0.09 0.08 0.06 0.06 0.08
0.03 0.02 0.03 0.03 0.02 0.01 0.02 0.02 0.01 0.02 0.04 0.05 0.04 0.05 0.03 0.02 0.01 0.01 0.01 0.01 0.00 0.01 0.01 0.01 0.04 0.04 0.04 0.04 0.03 0.04 0.04 0.05 0.07 0.09 0.10 0.10 0.09 0.07 0.07 0.08 0.07 0.06 0.05 0.04
0.03 0.02 0.03 0.02 0.02 0.02 0.02 0.03 0.02 0.03 0.06 0.06 0.03 0.03 0.03 0.02 0.01 0.00 0.00 0.00 0.00 0.01 0.01 0.02 0.04 0.05 0.04 0.04 0.03 0.04 0.04 0.05 0.05 0.06 0.08 0.09 0.10 0.08 0.06 0.06 0.05 0.05 0.04 0.03
0.03 0.02 0.02 0.02 0.02 0.03 0.03 0.06 0.08 0.11 0.11 0.05 0.02 0.02 0.03 0.02 0.01 0.01 0.00 0.00 0.00 0.01 0.01 0.02 0.04 0.04 0.03 0.03 0.02 0.03 0.04 0.05 0.04 0.05 0.05 0.06 0.08 0.09 0.07 0.05 0.04 0.03 0.03 0.03
0.05 0.04 0.03 0.03 0.03 0.04 0.04 0.04 0.05 0.06 0.05 0.03 0.02 0.03 0.03 0.02 0.02 0.01 0.01 0.00 0.00 0.01 0.01 0.02 0.02 0.03 0.02 0.02 0.02 0.02 0.02 0.03 0.04 0.04 0.04 0.05 0.06 0.07 0.07 0.05 0.03 0.02 0.02 0.03
0.04 0.04 0.03 0.03 0.02 0.03 0.05 0.04 0.03 0.03 0.03 0.02 0.02 0.02 0.02 0.01 0.01 0.01 0.01 0.01 0.01 0.01 0.01 0.01 0.01 0.02 0.02 0.01 0.02 0.02 0.03 0.03 0.03 0.03 0.04 0.03 0.04 0.05 0.07 0.07 0.04 0.02 0.02 0.02
0.02 0.02 0.02 0.03 0.03 0.03 0.03 0.04 0.03 0.04 0.03 0.02 0.02 0.01 0.02 0.02 0.02 0.02 0.01 0.01 0.00 0.00 0.01 0.01 0.02 0.02 0.01 0.01 0.01 0.02 0.03 0.03 0.03 0.03 0.03 0.02 0.02 0.04 0.06 0.08 0.07 0.04 0.04 0.04
0.01 0.02 0.02 0.02 0.04 0.04 0.03 0.04 0.03 0.03 0.03 0.02 0.02 0.02 0.02 0.02 0.02 0.02 0.01 0.01 0.01 0.01 0.01 0.00 0.01 0.01 0.01 0.01 0.01 0.01 0.02 0.02 0.03 0.04 0.04 0.03 0.02 0.03 0.05 0.06 0.06 0.03 0.02 0.02
0.01 0.02 0.02 0.01 0.01 0.02 0.02 0.04 0.04 0.03 0.02 0.02 0.01 0.02 0.02 0.02 0.02 0.02 0.01 0.01 0.01 0.01 0.01 0.00 0.00 0.01 0.01 0.00 0.01 0.01 0.02 0.02 0.02 0.03 0.03 0.04 0.04 0.03 0.04 0.07 0.06 0.03 0.02 0.02
0.02 0.01 0.02 0.02 0.01 0.02 0.02 0.02 0.02 0.03 0.02 0.02 0.01 0.02 0.02 0.02 0.01 0.01 0.01 0.01 0.01 0.01 0.01 0.01 0.00 0.00 0.00 0.00 0.00 0.01 0.01 0.01 0.02 0.02 0.02 0.02 0.03 0.03 0.03 0.04 0.05 0.03 0.02 0.02
0.02 0.01 0.01 0.01 0.01 0.02 0.02 0.02 0.02 0.02 0.03 0.01 0.01 0.01 0.01 0.01 0.01 0.01 0.01 0.00 0.00 0.01 0.01 0.01 0.00 0.00 0.00 0.00 0.01 0.01 0.01 0.02 0.02 0.02 0.02 0.02 0.03 0.04 0.04 0.04 0.03 0.03 0.02 0.03
0.01 0.01 0.00 0.01 0.01 0.02 0.02 0.02 0.02 0.02 0.02 0.02 0.01 0.01 0.01 0.01 0.01 0.01 0.01 0.00 0.00 0.00 0.01 0.01 0.00 0.00 0.00 0.00 0.01 0.01 0.01 0.02 0.02 0.02 0.02 0.02 0.02 0.03 0.03 0.04 0.04 0.03 0.02 0.02
0.01 0.01 0.00 0.01 0.01 0.01 0.01 0.02 0.02 0.02 0.02 0.02 0.01 0.01 0.01 0.01 0.01 0.01 0.01 0.01 0.00 0.00 0.00 0.00 0.00 0.00 0.00 0.00 0.00 0.01 0.01 0.02 0.02 0.02 0.02 0.02 0.01 0.02 0.02 0.02 0.03 0.03 0.02 0.01
0.01 0.01 0.01 0.01 0.01 0.01 0.02 0.02 0.02 0.02 0.02 0.02 0.02 0.01 0.01 0.01 0.01 0.01 0.02 0.01 0.01 0.01 0.01 0.00 0.00 0.00 0.00 0.01 0.00 0.01 0.01 0.01 0.02 0.02 0.01 0.01 0.01 0.01 0.01 0.01 0.02 0.02 0.02 0.01
0.01 0.01 0.01 0.01 0.01 0.01 0.02 0.02 0.02 0.02 0.02 0.02 0.02 0.02 0.01 0.01 0.01 0.01 0.01 0.01 0.02 0.02 0.01 0.01 0.01 0.01 0.01 0.01 0.00 0.00 0.01 0.01 0.01 0.01 0.01 0.01 0.01 0.01 0.01 0.01 0.02 0.02 0.02 0.02
0.01 0.01 0.01 0.01 0.01 0.01 0.01 0.02 0.02 0.02 0.02 0.02 0.02 0.02 0.02 0.02 0.01 0.01 0.01 0.01 0.01 0.01 0.02 0.01 0.01 0.01 0.01 0.01 0.00 0.00 0.01 0.01 0.01 0.01 0.01 0.01 0.01 0.01 0.01 0.01 0.01 0.01 0.02 0.01
0.01 0.01 0.01 0.01 0.01 0.01 0.01 0.01 0.01 0.02 0.02 0.02 0.01 0.01 0.01 0.02 0.02 0.01 0.01 0.01 0.01 0.01 0.01 0.01 0.01 0.01 0.00 0.00 0.00 0.00 0.01 0.01 0.01 0.01 0.01 0.01 0.01 0.01 0.01 0.01 0.01 0.01 0.01 0.01
0.01 0.01 0.01 0.01 0.01 0.01 0.01 0.01 0.00 0.01 0.01 0.01 0.01 0.01 0.01 0.01 0.01 0.01 0.01 0.01 0.01 0.01 0.01 0.01 0.01 0.01 0.00 0.00 0.00 0.00 0.01 0.01 0.01 0.01 0.01 0.01 0.01 0.01 0.01 0.01 0.01 0.01 0.01 0.01
0.01 0.01 0.01 0.01 0.01 0.01 0.01 0.00 0.01 0.01 0.01 0.01 0.01 0.01 0.01 0.01 0.01 0.01 0.01 0.01 0.01 0.01 0.01 0.01 0.00 0.01 0.01 0.00 0.00 0.00 0.00 0.01 0.01 0.02 0.02 0.01 0.02 0.02 0.02 0.02 0.01 0.01 0.01 0.01
0.00 0.01 0.01 0.01 0.01 0.01 0.01 0.01 0.01 0.01 0.01 0.01 0.01 0.01 0.01 0.01 0.02 0.01 0.01 0.01 0.00 0.00 0.00 0.01 0.01 0.00 0.00 0.00 0.00 0.00 0.01 0.01 0.01 0.02 0.02 0.02 0.02 0.03 0.02 0.03 0.03 0.02 0.01 0.01
0.00 0.00 0.00 0.00 0.00 0.00 0.00 0.00 0.01 0.01 0.01 0.01 0.01 0.02 0.01 0.01 0.01 0.02 0.01 0.01 0.00 0.00 0.00 0.01 0.01 0.01 0.00 0.00 0.00 0.00 0.01 0.01 0.02 0.03 0.03 0.03 0.03 0.04 0.03 0.03 0.04 0.04 0.03 0.02
0.00 0.00 0.00 0.00 0.00 0.00 0.00 0.00 0.00 0.01 0.01 0.01 0.01 0.01 0.01 0.01 0.01 0.01 0.01 0.01 0.01 0.00 0.00 0.01 0.01 0.01 0.01 0.01 0.01 0.01 0.01 0.01 0.02 0.03 0.04 0.04 0.04 0.03 0.04 0.04 0.04 0.04 0.05 0.04
0.00 0.00 0.00 0.00 0.00 0.00 0.00 0.00 0.00 0.00 0.01 0.01 0.01 0.01 0.01 0.01 0.01 0.01 0.01 0.01 0.01 0.00 0.01 0.01 0.01 0.01 0.01 0.01 0.01 0.01 0.01 0.01 0.02 0.03 0.04 0.04 0.04 0.04 0.03 0.03 0.04 0.04 0.05 0.05
MSLP
1017.51 1017.63 1017.66 1017.61 1017.51 1017.38 1017.26 1017.17 1017.11 1017.08 1017.06 1017.03 1016.97 1016.89 1016.80 1016.73 1016.72 1016.81 1017.03 1017.38 1017.87 1018.47 1019.13 1019.81 1020.47 1021.06 1021.59 1022.05 1022.46 1022.85 1023.24 1023.65 1024.10 1024.58 1025.07 1025.55 1025.98 1026.35 1026.63 1026.83 1026.95 1027.00 1027.01 1027.00
1017.79 1017.85 1017.81 1017.69 1017.53 1017.37 1017.24 1017.18 1017.17 1017.20 1017.23 1017.22 1017.16 1017.04 1016.86 1016.66 1016.50 1016.43 1016.50 1016.73 1017.13 1017.68 1018.35 1019.07 1019.81 1020.51 1021.14 1021.71 1022.21 1022.67 1023.10 1023.54 1024.00 1024.47 1024.95 1025.42 1025.86 1026.24 1026.56 1026.81 1027.00 1027.12 1027.20 1027.24
1018.09 1018.06 1017.93 1017.73 1017.50 1017.30 1017.16 1017.11 1017.14 1017.21 1017.28 1017.29 1017.21 1017.02 1016.74 1016.41 1016.09 1015.84 1015.74 1015.82 1016.11 1016.60 1017.25 1018.02 1018.83 1019.65 1020.43 1021.14 1021.78 1022.36 1022.89 1023.40 1023.88 1024.37 1024.84 1025.30 1025.73 1026.12 1026.46 1026.75 1026.99 1027.18 1027.32 1027.43
1018.42 1018.27 1018.02 1017.71 1017.40 1017.14 1016.98 1016.93 1016.97 1017.06 1017.13 1017.14 1017.02 1016.77 1016.38 1015.92 1015.43 1015.02 1014.74 1014.67 1014.84 1015.25 1015.88 1016.68 1017.58 1018.52 1019.45 1020.34 1021.16 1021.89 1022.56 1023.16 1023.72 1024.24 1024.72 1025.17 1025.59 1025.97 1026.33 1026.64 1026.93 1027.18 1027.39 1027.55
1018.83 1018.52 1018.12 1017.68 1017.27 1016.94 1016.73 1016.64 1016.66 1016.73 1016.78 1016.75 1016.58 1016.24 1015.76 1015.17 1014.55 1013.99 1013.57 1013.36 1013.42 1013.75 1014.35 1015.16 1016.13 1017.19 1018.27 1019.33 1020.33 1021.25 1022.08 1022.81 1023.46 1024.04 1024.55 1025.01 1025.43 1025.82 1026.18 1026.52 1026.84 1027.13 1027.39 1027.61
1019.36 1018.87 1018.31 1017.74 1017.21 1016.79 1016.49 1016.34 1016.30 1016.30 1016.28 1016.18 1015.93 1015.51 1014.93 1014.24 1013.52 1012.84 1012.31 1012.01 1011.97 1012.24 1012.80 1013.61 1014.63 1015.77 1016.97 1018.19 1019.36 1020.45 1021.44 1022.31 1023.08 1023.74 1024.31 1024.81 1025.25 1025.65 1026.02 1026.38 1026.73 1027.06 1027.37 1027.63
1020.06 1019.40 1018.69 1017.99 1017.35 1016.82 1016.43 1016.18 1016.03 1015.92 1015.78 1015.56 1015.20 1014.68 1014.01 1013.25 1012.45 1011.71 1011.12 1010.75 1010.66 1010.87 1011.39 1012.19 1013.21 1014.40 1015.68 1017.00 1018.30 1019.53 1020.67 1021.68 1022.57 1023.33 1023.99 1024.54 1025.03 1025.47 1025.87 1026.26 1026.64 1027.01 1027.34 1027.63
1020.96 1020.17 1019.34 1018.55 1017.82 1017.20 1016.70 1016.32 1016.02 1015.75 1015.45 1015.07 1014.57 1013.93 1013.17 1012.34 1011.50 1010.74 1010.12 1009.73 1009.61 1009.79 1010.28 1011.04 1012.04 1013.22 1014.52 1015.89 1017.26 1018.59 1019.83 1020.96 1021.96 1022.83 1023.58 1024.22 1024.78 1025.28 1025.73 1026.17 1026.58 1026.98 1027.34 1027.65
1022.03 1021.18 1020.32 1019.48 1018.71 1018.02 1017.42 1016.91 1016.44 1015.97 1015.47 1014.88 1014.20 1013.42 1012.56 1011.68 1010.81 1010.05 1009.45 1009.08 1008.95 1009.11 1009.56 1010.27 1011.21 1012.34 1013.61 1014.96 1016.34 1017.70 1019.00 1020.21 1021.30 1022.27 1023.12 1023.86 1024.50 1025.08 1025.60 1026.10 1026.56 1026.99 1027.37 1027.70
1023.21 1022.40 1021.58 1020.78 1020.02 1019.30 1018.63 1017.98 1017.33 1016.65 1015.92 1015.10 1014.22 1013.28 1012.31 1011.36 1010.49 1009.74 1009.18 1008.83 1008.72 1008.88 1009.28 1009.94 1010.80 1011.84 1013.03 1014.31 1015.64 1016.98 1018.28 1019.53 1020.68 1021.72 1022.65 1023.48 1024.22 1024.88 1025.49 1026.05 1026.56 1027.02 1027.43 1027.76
1024.42 1023.72 1023.03 1022.33 1021.64 1020.95 1020.24 1019.48 1018.66 1017.77 1016.80 1015.75 1014.66 1013.54 1012.45 1011.44 1010.55 1009.83 1009.30 1008.99 1008.91 1009.06 1009.44 1010.03 1010.80 1011.74 1012.81 1013.98 1015.22 1016.50 1017.76 1018.99 1020.16 1021.24 1022.24 1023.14 1023.96 1024.70 1025.38 1026.00 1026.57 1027.07 1027.49 1027.83
1025.53 1025.02 1024.50 1023.96 1023.38 1022.74 1022.02 1021.18 1020.23 1019.15 1017.96 1016.70 1015.41 1014.14 1012.94 1011.86 1010.96 1010.24 1009.75 1009.47 1009.42 1009.57 1009.92 1010.45 1011.14 1011.97 1012.93 1013.98 1015.11 1016.29 1017.48 1018.66 1019.81 1020.89 1021.91 1022.86 1023.73 1024.54 1025.28 1025.96 1026.56 1027.09 1027.53 1027.87
1026.48 1026.15 1025.81 1025.43 1024.98 1024.41 1023.70 1022.82 1021.76 1020.55 1019.20 1017.78 1016.33 1014.93 1013.64 1012.52 1011.59 1010.88 1010.41 1010.16 1010.12 1010.27 1010.60 1011.08 1011.70 1012.45 1013.30 1014.24 1015.27 1016.34 1017.44 1018.55 1019.64 1020.69 1021.70 1022.66 1023.55 1024.39 1025.17 1025.89 1026.53 1027.08 1027.53 1027.87
1027.20 1027.03 1026.83 1026.57 1026.21 1025.71 1025.02 1024.12 1023.01 1021.72 1020.28 1018.77 1017.24 1015.77 1014.43 1013.27 1012.33 1011.63 1011.17 1010.93 1010.89 1011.04 1011.34 1011.79 1012.36 1013.04 1013.81 1014.67 1015.60 1016.59 1017.60 1018.63 1019.64 1020.64 1021.61 1022.53 1023.42 1024.26 1025.06 1025.79 1026.45 1027.02 1027.49 1027.83
1027.71 1027.61 1027.47 1027.26 1026.94 1026.46 1025.79 1024.89 1023.78 1022.48 1021.04 1019.52 1017.99 1016.52 1015.18 1014.03 1013.10 1012.40 1011.93 1011.68 1011.62 1011.75 1012.02 1012.44 1012.97 1013.61 1014.34 1015.15 1016.02 1016.93 1017.87 1018.82 1019.76 1020.69 1021.59 1022.47 1023.32 1024.15 1024.93 1025.67 1026.34 1026.92 1027.40 1027.76
1028.08 1027.93 1027.74 1027.49 1027.14 1026.63 1025.95 1025.08 1024.01 1022.77 1021.40 1019.96 1018.51 1017.12 1015.84 1014.74 1013.82 1013.12 1012.63 1012.34 1012.24 1012.32 1012.56 1012.94 1013.44 1014.05 1014.76 1015.54 1016.38 1017.26 1018.15 1019.04 1019.92 1020.78 1021.62 1022.44 1023.24 1024.03 1024.80 1025.53 1026.20 1026.80 1027.29 1027.67
1028.37 1028.07 1027.74 1027.35 1026.88 1026.31 1025.61 1024.76 1023.76 1022.64 1021.41 1020.13 1018.84 1017.59 1016.42 1015.39 1014.51 1013.79 1013.26 1012.91 1012.74 1012.74 1012.91 1013.24 1013.71 1014.30 1015.00 1015.78 1016.62 1017.48 1018.35 1019.21 1020.04 1020.85 1021.63 1022.40 1023.16 1023.92 1024.66 1025.39 1026.06 1026.67 1027.19 1027.58
1028.68 1028.14 1027.58 1026.99 1026.36 1025.69 1024.95 1024.13 1023.24 1022.26 1021.23 1020.16 1019.07 1018.00 1016.98 1016.03 1015.18 1014.44 1013.85 1013.40 1013.12 1013.02 1013.09 1013.34 1013.75 1014.32 1015.01 1015.80 1016.65 1017.53 1018.40 1019.25 1020.06 1020.84 1021.60 1022.34 1023.07 1023.80 1024.54 1025.26 1025.94 1026.57 1027.10 1027.52
1029.02 1028.23 1027.42 1026.60 1025.80 1025.01 1024.24 1023.46 1022.68 1021.88 1021.05 1020.20 1019.34 1018.45 1017.57 1016.70 1015.87 1015.10 1014.42 1013.85 1013.43 1013.19 1013.13 1013.28 1013.63 1014.15 1014.83 1015.62 1016.49 1017.39 1018.29 1019.15 1019.98 1020.76 1021.51 1022.24 1022.97 1023.70 1024.44 1025.16 1025.86 1026.49 1027.04 1027.48
1029.39 1028.37 1027.34 1026.33 1025.38 1024.50 1023.70 1022.97 1022.30 1021.67 1021.04 1020.40 1019.73 1019.01 1018.25 1017.44 1016.60 1015.77 1014.99 1014.28 1013.71 1013.30 1013.11 1013.14 1013.40 1013.87 1014.52 1015.31 1016.19 1017.12 1018.05 1018.95 1019.81 1020.62 1021.39 1022.14 1022.88 1023.63 1024.38 1025.12 1025.82 1026.46 1027.02 1027.46
1029.71 1028.55 1027.37 1026.24 1025.20 1024.28 1023.48 1022.81 1022.24 1021.74 1021.27 1020.80 1020.27 1019.67 1018.98 1018.20 1017.34 1016.43 1015.53 1014.68 1013.96 1013.40 1013.07 1012.98 1013.15 1013.56 1014.17 1014.95 1015.85 1016.80 1017.76 1018.70 1019.60 1020.45 1021.27 1022.05 1022.83 1023.60 1024.36 1025.11 1025.82 1026.47 1027.02 1027.46
1029.92 1028.71 1027.50 1026.34 1025.29 1024.37 1023.61 1022.99 1022.50 1022.10 1021.73 1021.35 1020.91 1020.36 1019.70 1018.90 1018.00 1017.01 1016.01 1015.04 1014.19 1013.51 1013.06 1012.88 1012.97 1013.32 1013.90 1014.66 1015.56 1016.52 1017.51 1018.49 1019.43 1020.32 1021.18 1022.01 1022.82 1023.62 1024.40 1025.16 1025.87 1026.50 1027.04 1027.46
1029.95 1028.81 1027.66 1026.56 1025.56 1024.70 1023.99 1023.43 1022.99 1022.63 1022.29 1021.94 1021.51 1020.97 1020.28 1019.45 1018.49 1017.44 1016.37 1015.33 1014.40 1013.64 1013.13 1012.88 1012.92 1013.23 1013.78 1014.52 1015.40 1016.37 1017.37 1018.37 1019.34 1020.27 1021.16 1022.03 1022.87 1023.68 1024.48 1025.23 1025.93 1026.55 1027.06 1027.45
1029.76 1028.78 1027.77 1026.80 1025.92 1025.15 1024.50 1023.97 1023.54 1023.17 1022.82 1022.43 1021.95 1021.36 1020.62 1019.74 1018.75 1017.67 1016.56 1015.51 1014.57 1013.80 1013.28 1013.02 1013.05 1013.34 1013.87 1014.59 1015.45 1016.40 1017.40 1018.40 1019.37 1020.32 1021.23 1022.11 1022.96 1023.78 1024.57 1025.31 1025.99 1026.58 1027.06 1027.42
1029.42 1028.62 1027.80 1027.00 1026.24 1025.56 1024.97 1024.45 1024.00 1023.58 1023.15 1022.68 1022.12 1021.45 1020.66 1019.75 1018.74 1017.67 1016.61 1015.60 1014.72 1014.01 1013.54 1013.32 1013.37 1013.66 1014.18 1014.88 1015.71 1016.63 1017.59 1018.56 1019.51 1020.45 1021.35 1022.22 1023.07 1023.89 1024.66 1025.38 1026.03 1026.59 1027.04 1027.38
1029.00 1028.39 1027.75 1027.10 1026.47 1025.86 1025.30 1024.76 1024.26 1023.75 1023.21 1022.63 1021.98 1021.24 1020.40 1019.48 1018.50 1017.51 1016.53 1015.64 1014.88 1014.29 1013.92 1013.78 1013.87 1014.18 1014.69 1015.36 1016.14 1017.00 1017.91 1018.82 1019.73 1020.63 1021.50 1022.35 1023.18 1023.97 1024.72 1025.42 1026.04 1026.57 1027.00 1027.32
Thickness
5472 5470 5472 5477 5482 5488 5488 5490 5493 5502 5513 5515 5517 5523 5532 5540 5544 5551 5557 5564 5570 5576 5581 5586 5591 5596 5600 5603 5606 5608 5611 5613 5614 5615 5616 5617 5618 5619 5620 5620 5620 5621 5622 5621
5462 5463 5470 5476 5479 5483 5484 5484 5486 5496 5506 5508 5509 5514 5524 5531 5535 5541 5548 5554 5559 5565 5570 5575 5580 5585 5589 5593 5596 5599 5602 5603 5606 5607 5608 5609 5610 5610 5611 5611 5612 5613 5613 5613
5457 5462 5468 5471 5473 5476 5480 5480 5481 5486 5493 5497 5501 5507 5516 5524 5528 5534 5539 5545 5550 5556 5559 5564 5569 5574 5578 5582 5586 5590 5592 5594 5596 5598 5599 5599 5599 5600 5600 5601 5602 5603 5604 5604
5453 5459 5463 5465 5467 5470 5473 5479 5481 5482 5480 5479 5489 5490 5508 5515 5520 5526 5529 5533 5540 5545 5550 5554 5558 5563 5568 5572 5575 5579 5581 5584 5586 5588 5589 5590 5592 5592 5593 5594 5593 5593 5594 5595
5448 5453 5455 5460 5464 5467 5467 5474 5475 5475 5471 5469 5477 5476 5495 5505 5511 5519 5521 5524 5529 5534 5539 5544 5548 5553 5557 5560 5564 5567 5570 5573 5575 5578 5579 5581 5582 5583 5583 5583 5584 5584 5585 5586
5445 5450 5452 5456 5462 5464 5465 5466 5466 5463 5461 5462 5469 5473 5484 5493 5506 5512 5514 5515 5519 5523 5529 5533 5538 5542 5545 5549 5552 5556 5559 5562 5564 5567 5569 5571 5572 5572 5573 5574 5574 5575 5576 5577
5437 5445 5448 5452 5454 5457 5457 5452 5449 5450 5448 5456 5467 5469 5480 5493 5497 5501 5503 5505 5508 5513 5517 5522 5526 5530 5534 5538 5541 5545 5549 5551 5553 5556 5559 5561 5562 5563 5565 5566 5566 5566 5567 5568
5425 5432 5440 5443 5446 5446 5448 5447 5441 5444 5447 5450 5457 5464 5477 5483 5486 5490 5492 5495 5498 5502 5507 5512 5515 5519 5522 5527 5531 5535 5538 5541 5543 5545 5548 5551 5553 5554 5555 5557 5559 5559 5561 5561
5416 5426 5436 5441 5444 5445 5442 5438 5440 5432 5428 5433 5446 5456 5470 5473 5475 5479 5481 5484 5488 5492 5497 5501 5504 5508 5512 5515 5520 5524 5528 5531 5533 5535 5538 5541 5543 5545 5546 5548 5550 5551 5552 5553
5412 5414 5424 5431 5441 5439 5439 5434 5428 5425 5429 5435 5443 5449 5458 5463 5465 5469 5471 5474 5477 5481 5485 5490 5493 5498 5501 5505 5509 5513 5517 5520 5523 5526 5528 5531 5533 5536 5538 5540 5541 5542 5543 5544
5409 5405 5413 5419 5422 5424 5428 5428 5424 5418 5423 5425 5431 5451 5456 5455 5457 5457 5460 5464 5467 5470 5475 5479 5483 5487 5491 5494 5498 5503 5506 5510 5513 5516 5519 5521 5523 5526 5529 5531 5532 5533 5534 5534
5402 5396 5395 5403 5411 5415 5419 5420 5417 5418 5414 5412 5415 5440 5447 5445 5447 5449 5450 5454 5456 5460 5464 5468 5472 5476 5480 5484 5488 5491 5496 5500 5503 5506 5509 5512 5514 5516 5519 5521 5523 5524 5525 5525
5400 5390 5392 5403 5406 5406 5404 5405 5405 5404 5403 5402 5413 5436 5440 5437 5439 5439 5440 5442 5446 5450 5453 5456 5460 5464 5468 5472 5476 5481 5485 5489 5493 5496 5499 5502 5504 5507 5509 5511 5513 5515 5515 5516
5398 5383 5387 5394 5398 5394 5393 5397 5397 5401 5399 5400 5411 5426 5432 5430 5429 5430 5431 5432 5435 5439 5442 5445 5448 5451 5455 5460 5464 5469 5473 5478 5482 5486 5489 5491 5494 5497 5500 5502 5504 5505 5506 5506
5386 5378 5376 5382 5389 5391 5393 5394 5394 5396 5400 5402 5415 5416 5423 5420 5417 5418 5420 5423 5427 5429 5432 5435 5436 5439 5443 5448 5453 5458 5463 5467 5471 5475 5478 5481 5484 5487 5490 5492 5494 5495 5496 5497
5373 5372 5373 5380 5389 5388 5391 5395 5393 5393 5395 5399 5405 5410 5410 5408 5409 5410 5411 5414 5417 5419 5422 5424 5426 5429 5432 5436 5442 5447 5452 5456 5460 5464 5468 5471 5474 5477 5479 5481 5483 5484 5485 5486
5364 5364 5368 5372 5376 5384 5384 5388 5388 5388 5389 5391 5400 5405 5400 5402 5404 5402 5403 5405 5407 5409 5411 5413 5416 5418 5422 5426 5431 5436 5440 5445 5450 5454 5458 5461 5464 5466 5468 5471 5472 5473 5475 5475
5360 5357 5352 5357 5364 5371 5386 5381 5381 5383 5385 5384 5389 5391 5392 5393 5395 5395 5396 5397 5398 5399 5401 5403 5406 5409 5412 5417 5421 5426 5430 5435 5439 5444 5447 5450 5453 5455 5457 5460 5462 5463 5464 5465
5357 5355 5346 5344 5347 5362 5377 5378 5374 5375 5381 5380 5380 5384 5386 5386 5388 5390 5391 5390 5390 5391 5392 5394 5397 5400 5403 5407 5412 5416 5421 5424 5428 5433 5437 5440 5442 5444 5446 5449 5451 5453 5453 5454
5348 5345 5342 5335 5347 5360 5377 5373 5371 5372 5376 5376 5374 5376 5376 5378 5381 5385 5385 5382 5383 5384 5385 5386 5389 5391 5394 5398 5403 5407 5411 5414 5418 5422 5426 5430 5432 5434 5436 5438 5440 5442 5443 5443
5340 5335 5335 5334 5337 5355 5366 5365 5368 5366 5374 5371 5368 5369 5368 5368 5371 5375 5375 5375 5375 5376 5377 5379 5380 5382 5385 5390 5394 5397 5401 5404 5408 5412 5416 5419 5421 5423 5425 5427 5429 5431 5432 5433
5336 5332 5328 5327 5333 5354 5361 5359 5360 5364 5364 5363 5362 5362 5361 5363 5365 5365 5366 5367 5368 5368 5370 5371 5372 5374 5377 5381 5384 5388 5391 5395 5398 5402 5406 5408 5410 5412 5414 5415 5417 5419 5421 5422
5332 5337 5336 5338 5353 5357 5353 5355 5356 5355 5355 5356 5356 5356 5356 5357 5357 5358 5359 5358 5359 5360 5362 5363 5364 5367 5369 5372 5375 5379 5382 5386 5390 5393 5395 5397 5399 5401 5402 5404 5406 5408 5410 5411
5332 5331 5330 5333 5347 5348 5348 5346 5348 5348 5349 5350 5351 5351 5350 5350 5351 5350 5351 5351 5352 5353 5354 5355 5357 5359 5361 5364 5367 5370 5374 5377 5380 5382 5384 5386 5388 5389 5391 5394 5396 5398 5400 5401
5337 5328 5326 5330 5341 5343 5348 5345 5345 5345 5344 5345 5345 5345 5344 5344 5344 5343 5343 5343 5344 5346 5347 5348 5349 5351 5353 5356 5359 5362 5365 5369 5370 5372 5373 5375 5377 5378 5380 5382 5384 5387 5390 5393
5336 5332 5331 5344 5346 5341 5345 5344 5340 5339 5339 5339 5339 5339 5339 5338 5337 5336 5336 5336 5337 5338 5339 5340 5342 5344 5345 5348 5351 5354 5357 5359 5360 5362 5363 5365 5366 5368 5370 5372 5374 5376 5380 5383